Tracking 18850 objects as of 22-Nov-2017
HD Live streaming from Space Station
objects crossing your sky now

FENGYUN 1C DEB

Track FENGYUN 1C DEB now!
10-day predictions


NORAD ID: 38491
Int'l Code: 1999-025ESA
Perigee: 754.9 km
Apogee: 1,098.1 km
Inclination: 99.2 °
Period: 103.4 minutes
Semi major axis: 7297 km
RCS: 0.0123 m2 (small)
Launch date: May 10, 1999
Source: People's Republic of China (PRC)
Launch site: Taiyaun Space Center, China (TSC)

Note: This is SATELLITE DEBRIS
aabbcc
Your satellite tracking list
Your tracking list is empty




NASA's NSSDC Master Catalog

Two Line Element Set (TLE):
1 38491U 99025ESA 17322.86870008 +.00000376 +00000-0 +25883-3 0  9997
2 38491 099.1783 352.0458 0235112 160.1665 200.8827 13.92647800254277
Source of the keplerian elements: AFSPC